AirNav   Air Wisconsin pilot careers
 
 398 users online  

KNRS Imperial Beach Naval Outlying Field (Ream Field)
Imperial Beach, California, USA

GOING TO IMPERIAL BEACH?


FAA INFORMATION EFFECTIVE 29 MARCH 2018

Location

FAA Identifier: NRS
Lat/Long: 32-33-58.1638N / 117-06-48.6837W
32-33.969397N / 117-06.811395W
32.5661566 / -117.1135233
(estimated)
Elevation: 23.6 ft. / 7.2 m (surveyed)
Variation: 11E (2020)
From city: 1 mile S of IMPERIAL BEACH, CA
Time zone: UTC -7 (UTC -8 during Standard Time)
Zip code: 91932

Airport Operations

Airport use: Private use. Permission required prior to landing
Activation date: 02/1944
Control tower: yes
ARTCC: LOS ANGELES CENTER
FSS: SAN DIEGO FLIGHT SERVICE STATION
FSS-SAN DIEGO SAN-NOTAM NRS
NOTAMs facility: SAN (NOTAM-D service available)
Attendance: 
OPR 1600-0630Z MON-THU (1500-0600Z DT) AND 1600-0200Z++ FRI. CLSD FR 0200Z++ DAY PRIOR TIL 1600Z++ DAY FLW GOVT HOL; EXC PRE-COORD FLT OF OPR NECESSITY. CTC NOLF ATC DSN 577-9414/9415 FOR OPR INQUIRIES.
Segmented circle: no
Lights: AVBL ONLY DURING HRS OF OPERATION.
Beacon: white-white-green (lighted military airport)
Operates sunset to sunrise.

Airport Communications

ATIS: 276.2
WX ASOS: PHONE 619-437-9890
IMPERIAL BEACH GROUND: 285.575 [SEE OPER HRS REMARK]
IMPERIAL BEACH TOWER: 120.65 239.25 [SEE OPER HRS REMARK]
SOCAL APPROACH: 125.15
SOCAL DEPARTURE: 125.15
EMERG: 243.0
RADAR: 318.8
WX ASOS at SDM (7 nm E): PHONE 619-661-8297
WX ASOS at SAN (11 nm N): PHONE 619-296-8934
WX ASOS at MYF (15 nm N): PHONE 858-576-4337
WX AWOS-3P at SEE (17 nm NE): 125.45 (619-449-1228)
  • ATCT/GCA/ATIS OPR 1600-0630Z MON-THU (1500-0600Z DT) AND 1600-0200Z++ FRI. CLSD FR 0200Z++ DAY PRIOR TIL 1600Z++ DAY FLW GOVT HOL; EXC PRE-COORD FLT OF OPR NECESSITY.
  • FOR CLNC DEL WHEN ATCT CLSD CALL SOCAL APCH (800) 448-3724.
  • ILS/RADAR - RADAR - SEE TERMINAL FLIP FOR RADAR MINIMA.

Nearby radio navigation aids

VOR radial/distance  VOR name  Freq  Var
PGYr235/7.3POGGI VORTAC109.8014E
TIJr267/8.2TIJUANA VOR/DME116.5014E
MZBr141/14.1MISSION BAY VORTAC117.8015E

Airport Services

Runway Information

Runway 8/26

Dimensions: 2240 x 151 ft. / 683 x 46 m
Surface: concrete
Weight bearing capacity: 
PCN 6 /R/C/W/T
RUNWAY 8  RUNWAY 26
Latitude: 32-34.018072N32-33.921433N
Longitude: 117-06.827898W117-06.406738W
Elevation: 23.5 ft.21.2 ft.
Traffic pattern: leftleft
Touchdown point: yes, no lightsyes, no lights

Runway 9/27

Dimensions: 4997 x 336 ft. / 1523 x 102 m
Surface: PEM
Weight bearing capacity: 
PCN 8 /F/A/W/T
Runway edge lights: high intensity
RUNWAY 9  RUNWAY 27
Latitude: 32-34.076683N32-33.861790N
Longitude: 117-07.368155W117-06.428677W
Elevation: 8.2 ft.19.8 ft.
Traffic pattern: leftleft
Touchdown point: yes, no lightsyes, no lights

Airport Ownership and Management from official FAA records

Ownership: U.S. Navy
Owner: US NAVY
OCEANOGRAPHIC OFC - CODE 3142
WASHINGTON, DC 20373

Additional Remarks

RSTD - OFFL BUS ONLY - PPR F/W AND NON-TENANT ACFT, CTC NASNI ODO DSN 735-8233/8234, C619-545-8233/8234. NORTH ISLAND TENANT ACFT AND COAST GUARD HAVE PRIORITY FOR LCL PAT OPR.
CAUTION: EXTV COPTER TRNG.
MISC: RWY 08-26 AVBL FOR DAY AND NGT COPTER USE ONLY (NGT AND SVFR USE AT PILOTS OWN RISK).
FUEL: J5 (AVAILABLE 1100-2100 MON-THU; 1000-1800 FRI).

Instrument Procedures

NOTE: All procedures below are presented as PDF files. If you need a reader for these files, you should download the free Adobe Reader.

NOT FOR NAVIGATION. Please procure official charts for flight.
FAA instrument procedures published for use from 29 March 2018 at 0901Z to 26 April 2018 at 0900Z.

 
IAPs - Instrument Approach Procedures
COPTER TACAN RWY 27   download (94KB)
NOTE: Special Take-Off Minimums/Departure Procedures apply   download (174KB)

Other nearby airports with instrument procedures:

KSDM - Brown Field Municipal Airport (7 nm E)
KNZY - North Island Naval Air Station (Halsey Field) (9 nm NW)
KSAN - San Diego International Airport (11 nm N)
KMYF - Montgomery-Gibbs Executive Airport (15 nm N)
KSEE - Gillespie Field Airport (17 nm NE)
KNKX - Miramar MCAS (Joe Foss Field) Airport (18 nm N)
 
Loc | Ops | Rwys | IFR | FBO | Links
Com | Nav | Svcs | Stats | Notes

AirNav Hotels Sweepstakes
 
Area around KNRS (Imperial Beach Naval Outlying Field (Ream Field))
 
Road maps at: MapQuest Bing Google
 
Aerial photo
WARNING: Photo may not be current or correct
Aerial photo of KNRS (Imperial Beach Naval Outlying Field (Ream Field))
Taken in November 2008

Do you have a better or more recent aerial photo of Imperial Beach Naval Outlying Field (Ream Field) that you would like to share? If so, please send us your photo.

 
Sectional chart

 
Airport distance calculator
Flying to Imperial Beach Naval Outlying Field (Ream Field)? Find the distance to fly.

From to KNRS

Sunrise and sunset
Times for 25-Apr-2018
 Local
(UTC-7)
 Zulu
(UTC)
Morning civil twilight05:4312:43
Sunrise06:0913:09
Sunset19:2402:24
Evening civil twilight19:5002:50

Current date and time
Zulu (UTC)  26-Apr-2018 06:07:54
Local (UTC-7)  25-Apr-2018 23:07:54
 
METAR
KNRS 260556Z 31007KT 10SM SCT014 BKN250 15/12 A3007 RMK AO2 SLP181 T01500117 10172 20144 53007
KSDM 
6nm E 
260553Z AUTO 27004KT 9SM BKN009 13/12 A3005 RMK AO2 SLP175 T01330122 10183 20128 51005
MMTJ 
8nm E 
260542Z 27005KT 6SM OVC015 13/12 A3008 RMK SLP190 53009 904 8/5// HZY
KNZY 
10nm NW 
260552Z 32006KT 10SM BKN013 BKN250 15/11 A3005 RMK AO2 SLP175 T01500111 10178 20150 51006 $
KSAN 
11nm N 
260551Z 30006KT 10SM BKN013 BKN250 16/12 A3007 RMK AO2 SLP183 T01560117 10183 20156 53006
KMYF 
15nm N 
260553Z AUTO 31005KT 10SM SCT010 14/11 A3006 RMK AO2 SLP176 T01440111 10200 20144 53004
KSEE 
17nm NE 
260555Z AUTO 28006KT 10SM CLR 14/11 A3004 RMK AO2
KNKX 
18nm N 
260555Z 30004KT 10SM BKN010 15/11 A3005 RMK AO2 SLP171 T01500111 10217 20150 53004 $
TAF
MMTJ 
8nm E 
260433Z 2606/2712 30005KT 6SM HZ SCT015 BKN250 TX20/2620Z TN11/2612Z FM260800 00000KT 5SM HZ BKN015 BKN250 FM261500 30010KT P6SM SCT015 SCT250 FM270300 30005KT 5SM HZ BKN012
KNZY 
10nm NW 
2523/2623 29008KT 9999 FEW020 BKN250 QNH2997INS FM260300 VRB06KT 9999 SCT010 BKN250 QNH2998INS BECMG 2605/2607 VRB06KT 9999 BKN010 QNH2999INS TEMPO 2609/2615 6000 BR OVC006 FM261600 30010KT 9999 FEW025 FEW250 QNH2996INS T13/2613Z T19/2621Z FS30109
KSAN 
11nm N 
260520Z 2606/2712 VRB04KT P6SM SCT015 SCT200 FM260630 VRB04KT P6SM OVC013 FM261700 VRB04KT P6SM SCT015 SCT200 FM261900 29009KT P6SM SCT015 SCT200 FM270300 VRB04KT P6SM OVC015
KNKX 
18nm N 
2603/2703 29007KT 9999 FEW200 QNH2998INS BECMG 2605/2607 VRB06KT 9999 OVC010 QNH2998INS TEMPO 2608/2614 4800 BR OVC008 BECMG 2618/2620 28007KT 9999 SCT020 QNH2997INS T12/2613Z T21/2619Z
NOTAMs
Click for the latest NOTAMs
NOTAMs are issued by the DoD/FAA and will open in a separate window not controlled by AirNav.

 

 
 

Would you like to see your business listed on this page?

 If your business provides an interesting product or service to pilots, flight crews, aircraft, or users of the Imperial Beach Naval Outlying Field (Ream Field), you should consider listing it here.  To start the listing process, click on the button below
 
Add a business
 

Other Pages about Imperial Beach Naval Outlying Field (Ream Field)

Update a link
 
Copyright © AirNav, LLC. All rights reserved. Privacy Policy  Contact